Location: ?????????
(41.2286°N, 23.0068°E)
Time: 08:26:36
(UTC+00:00)

Cosmos 2237 Rocket - Pass Details

Date: 08 November 2025
Orbit: 836 x 847 km, 71.0° (Epoch: 04 December)

Event Time Altitude Azimuth Distance (km) Brightness Sun altitude
Rises 03:30:58 0° 197° (SSW) 3,389 5.2 -18.4°
Reaches altitude 10° 03:33:24 10° 195° (SSW) 2,457 4.5 -18.0°
Maximum altitude 03:39:02 76° 112° (ESE) 873 2.4 -16.9°
Drops below altitude 10° 03:44:41 10° 27° (NNE) 2,466 4.9 -15.9°
Sets 03:47:08 0° 26° (NNE) 3,403 5.6 -15.4°
